#datetime,building,power
2022-01-27T00:00:00,brk,21.00
2022-01-27T00:01:00,brk,21.25
2022-01-27T00:02:00,brk,21.05
2022-01-27T00:03:00,brk,19.95
2022-01-27T00:04:00,brk,18.31
2022-01-27T00:05:00,brk,19.78
2022-01-27T00:06:00,brk,20.72
2022-01-27T00:07:00,brk,19.37
2022-01-27T00:08:00,brk,20.87
2022-01-27T00:09:00,brk,20.93
2022-01-27T00:10:00,brk,20.09
2022-01-27T00:11:00,brk,20.03
2022-01-27T00:12:00,brk,19.91
2022-01-27T00:13:00,brk,20.99
2022-01-27T00:14:00,brk,20.98
2022-01-27T00:15:00,brk,21.04
2022-01-27T00:16:00,brk,21.09
2022-01-27T00:17:00,brk,20.26
2022-01-27T00:18:00,brk,19.81
2022-01-27T00:19:00,brk,20.50
2022-01-27T00:20:00,brk,20.64
2022-01-27T00:21:00,brk,20.80
2022-01-27T00:22:00,brk,20.64
2022-01-27T00:23:00,brk,23.88
2022-01-27T00:24:00,brk,19.65
2022-01-27T00:25:00,brk,20.48
2022-01-27T00:26:00,brk,20.55
2022-01-27T00:27:00,brk,20.73
2022-01-27T00:28:00,brk,23.61
2022-01-27T00:29:00,brk,20.89
2022-01-27T00:30:00,brk,21.04
2022-01-27T00:31:00,brk,20.92
2022-01-27T00:32:00,brk,30.37
2022-01-27T00:33:00,brk,30.36
2022-01-27T00:34:00,brk,20.44
2022-01-27T00:35:00,brk,20.92
2022-01-27T00:36:00,brk,20.88
2022-01-27T00:37:00,brk,20.93
2022-01-27T00:38:00,brk,20.58
2022-01-27T00:39:00,brk,20.75
2022-01-27T00:40:00,brk,20.76
2022-01-27T00:41:00,brk,19.10
2022-01-27T00:42:00,brk,18.18
2022-01-27T00:43:00,brk,19.70
2022-01-27T00:44:00,brk,20.62
2022-01-27T00:45:00,brk,19.06
2022-01-27T00:46:00,brk,19.12
2022-01-27T00:47:00,brk,20.60
2022-01-27T00:48:00,brk,18.58
2022-01-27T00:49:00,brk,31.84
2022-01-27T00:50:00,brk,20.88
2022-01-27T00:51:00,brk,20.99
2022-01-27T00:52:00,brk,21.20
2022-01-27T00:53:00,brk,17.15
2022-01-27T00:54:00,brk,16.01
2022-01-27T00:55:00,brk,16.08
2022-01-27T00:56:00,brk,15.84
2022-01-27T00:57:00,brk,16.69
2022-01-27T00:58:00,brk,16.93
2022-01-27T00:59:00,brk,16.72
2022-01-27T01:00:00,brk,15.80
2022-01-27T01:01:00,brk,15.79
2022-01-27T01:02:00,brk,15.73
2022-01-27T01:03:00,brk,16.52
2022-01-27T01:04:00,brk,16.78
2022-01-27T01:05:00,brk,16.42
2022-01-27T01:06:00,brk,16.62
2022-01-27T01:07:00,brk,15.88
2022-01-27T01:08:00,brk,27.16
2022-01-27T01:09:00,brk,16.72
2022-01-27T01:10:00,brk,16.68
2022-01-27T01:11:00,brk,16.62
2022-01-27T01:12:00,brk,16.35
2022-01-27T01:13:00,brk,15.39
2022-01-27T01:14:00,brk,15.51
2022-01-27T01:15:00,brk,15.41
2022-01-27T01:16:00,brk,16.37
2022-01-27T01:17:00,brk,16.63
2022-01-27T01:18:00,brk,16.81
2022-01-27T01:19:00,brk,24.38
2022-01-27T01:20:00,brk,24.32
2022-01-27T01:21:00,brk,15.41
2022-01-27T01:22:00,brk,16.29
2022-01-27T01:23:00,brk,16.12
2022-01-27T01:24:00,brk,16.38
2022-01-27T01:25:00,brk,16.05
2022-01-27T01:26:00,brk,15.63
2022-01-27T01:27:00,brk,15.61
2022-01-27T01:28:00,brk,16.63
2022-01-27T01:29:00,brk,16.76
2022-01-27T01:30:00,brk,16.59
2022-01-27T01:31:00,brk,16.77
2022-01-27T01:32:00,brk,15.30
2022-01-27T01:33:00,brk,15.18
2022-01-27T01:34:00,brk,16.02
2022-01-27T01:35:00,brk,16.04
2022-01-27T01:36:00,brk,15.87
2022-01-27T01:37:00,brk,15.81
2022-01-27T01:38:00,brk,14.92
2022-01-27T01:39:00,brk,14.94
2022-01-27T01:40:00,brk,20.15
2022-01-27T01:41:00,brk,24.76
2022-01-27T01:42:00,brk,24.62
2022-01-27T01:43:00,brk,24.56
2022-01-27T01:44:00,brk,23.61
2022-01-27T01:45:00,brk,23.56
2022-01-27T01:46:00,brk,23.48
2022-01-27T01:47:00,brk,24.27
2022-01-27T01:48:00,brk,24.32
2022-01-27T01:49:00,brk,24.39
2022-01-27T01:50:00,brk,24.32
2022-01-27T01:51:00,brk,23.41
2022-01-27T01:52:00,brk,23.35
2022-01-27T01:53:00,brk,24.25
2022-01-27T01:54:00,brk,24.34
2022-01-27T01:55:00,brk,24.29
2022-01-27T01:56:00,brk,24.41
2022-01-27T01:57:00,brk,23.49
2022-01-27T01:58:00,brk,23.52
2022-01-27T01:59:00,brk,23.60
2022-01-27T02:00:00,brk,24.51
2022-01-27T02:01:00,brk,24.39
2022-01-27T02:02:00,brk,24.43
2022-01-27T02:03:00,brk,24.34
2022-01-27T02:04:00,brk,23.41
2022-01-27T02:05:00,brk,23.26
2022-01-27T02:06:00,brk,24.08
2022-01-27T02:07:00,brk,24.21
2022-01-27T02:08:00,brk,24.27
2022-01-27T02:09:00,brk,24.17
2022-01-27T02:10:00,brk,23.37
2022-01-27T02:11:00,brk,23.31
2022-01-27T02:12:00,brk,24.17
2022-01-27T02:13:00,brk,24.26
2022-01-27T02:14:00,brk,24.33
2022-01-27T02:15:00,brk,24.46
2022-01-27T02:16:00,brk,23.68
2022-01-27T02:17:00,brk,15.67
2022-01-27T02:18:00,brk,19.61
2022-01-27T02:19:00,brk,24.40
2022-01-27T02:20:00,brk,24.45
2022-01-27T02:21:00,brk,24.43
2022-01-27T02:22:00,brk,20.34
2022-01-27T02:23:00,brk,19.25
2022-01-27T02:24:00,brk,19.19
2022-01-27T02:25:00,brk,24.10
2022-01-27T02:26:00,brk,20.19
2022-01-27T02:27:00,brk,24.10
2022-01-27T02:28:00,brk,20.09
2022-01-27T02:29:00,brk,19.16
2022-01-27T02:30:00,brk,19.17
2022-01-27T02:31:00,brk,23.17
2022-01-27T02:32:00,brk,20.96
2022-01-27T02:33:00,brk,20.17
2022-01-27T02:34:00,brk,16.20
2022-01-27T02:35:00,brk,24.25
2022-01-27T02:36:00,brk,23.28
2022-01-27T02:37:00,brk,19.07
2022-01-27T02:38:00,brk,16.27
2022-01-27T02:39:00,brk,16.34
2022-01-27T02:40:00,brk,16.19
2022-01-27T02:41:00,brk,15.60
2022-01-27T02:42:00,brk,14.67
2022-01-27T02:43:00,brk,14.77
2022-01-27T02:44:00,brk,14.76
2022-01-27T02:45:00,brk,15.78
2022-01-27T02:46:00,brk,15.41
2022-01-27T02:47:00,brk,15.42
2022-01-27T02:48:00,brk,15.43
2022-01-27T02:49:00,brk,14.50
2022-01-27T02:50:00,brk,14.42
2022-01-27T02:51:00,brk,15.37
2022-01-27T02:52:00,brk,15.72
2022-01-27T02:53:00,brk,15.83
2022-01-27T02:54:00,brk,15.80
2022-01-27T02:55:00,brk,14.97
2022-01-27T02:56:00,brk,14.79
2022-01-27T02:57:00,brk,15.64
2022-01-27T02:58:00,brk,15.64
2022-01-27T02:59:00,brk,15.74
2022-01-27T03:00:00,brk,15.65
2022-01-27T03:01:00,brk,14.87
2022-01-27T03:02:00,brk,14.82
2022-01-27T03:03:00,brk,14.72
2022-01-27T03:04:00,brk,15.59
2022-01-27T03:05:00,brk,15.61
2022-01-27T03:06:00,brk,15.67
2022-01-27T03:07:00,brk,14.71
2022-01-27T03:08:00,brk,14.60
2022-01-27T03:09:00,brk,14.58
2022-01-27T03:10:00,brk,15.49
2022-01-27T03:11:00,brk,15.65
2022-01-27T03:12:00,brk,15.51
2022-01-27T03:13:00,brk,15.50
2022-01-27T03:14:00,brk,14.48
2022-01-27T03:15:00,brk,14.43
2022-01-27T03:16:00,brk,15.33
2022-01-27T03:17:00,brk,15.37
2022-01-27T03:18:00,brk,15.34
2022-01-27T03:19:00,brk,15.38
2022-01-27T03:20:00,brk,14.45
2022-01-27T03:21:00,brk,14.41
2022-01-27T03:22:00,brk,14.39
2022-01-27T03:23:00,brk,15.28
2022-01-27T03:24:00,brk,15.31
2022-01-27T03:25:00,brk,15.46
2022-01-27T03:26:00,brk,15.43
2022-01-27T03:27:00,brk,14.60
2022-01-27T03:28:00,brk,14.56
2022-01-27T03:29:00,brk,15.49
2022-01-27T03:30:00,brk,24.28
2022-01-27T03:31:00,brk,24.08
2022-01-27T03:32:00,brk,22.30
2022-01-27T03:33:00,brk,14.01
2022-01-27T03:34:00,brk,13.12
2022-01-27T03:35:00,brk,13.04
2022-01-27T03:36:00,brk,13.74
2022-01-27T03:37:00,brk,13.86
2022-01-27T03:38:00,brk,14.32
2022-01-27T03:39:00,brk,13.99
2022-01-27T03:40:00,brk,13.03
2022-01-27T03:41:00,brk,13.04
2022-01-27T03:42:00,brk,13.78
2022-01-27T03:43:00,brk,13.72
2022-01-27T03:44:00,brk,13.74
2022-01-27T03:45:00,brk,13.87
2022-01-27T03:46:00,brk,12.85
2022-01-27T03:47:00,brk,12.88
2022-01-27T03:48:00,brk,13.77
2022-01-27T03:49:00,brk,14.10
2022-01-27T03:50:00,brk,14.00
2022-01-27T03:51:00,brk,13.92
2022-01-27T03:52:00,brk,13.00
2022-01-27T03:53:00,brk,12.92
2022-01-27T03:54:00,brk,12.75
2022-01-27T03:55:00,brk,13.59
2022-01-27T03:56:00,brk,13.76
2022-01-27T03:57:00,brk,13.79
2022-01-27T03:58:00,brk,13.76
2022-01-27T03:59:00,brk,12.89
2022-01-27T04:00:00,brk,12.90
2022-01-27T04:01:00,brk,13.67
2022-01-27T04:02:00,brk,13.95
2022-01-27T04:03:00,brk,13.94
2022-01-27T04:04:00,brk,14.03
2022-01-27T04:05:00,brk,13.07
2022-01-27T04:06:00,brk,13.08
2022-01-27T04:07:00,brk,13.76
2022-01-27T04:08:00,brk,13.79
2022-01-27T04:09:00,brk,13.73
2022-01-27T04:10:00,brk,13.78
2022-01-27T04:11:00,brk,13.79
2022-01-27T04:12:00,brk,12.90
2022-01-27T04:13:00,brk,12.69
2022-01-27T04:14:00,brk,13.65
2022-01-27T04:15:00,brk,13.78
2022-01-27T04:16:00,brk,13.77
2022-01-27T04:17:00,brk,13.82
2022-01-27T04:18:00,brk,12.90
2022-01-27T04:19:00,brk,12.88
2022-01-27T04:20:00,brk,13.12
2022-01-27T04:21:00,brk,13.85
2022-01-27T04:22:00,brk,13.85
2022-01-27T04:23:00,brk,13.90
2022-01-27T04:24:00,brk,13.89
2022-01-27T04:25:00,brk,12.86
2022-01-27T04:26:00,brk,12.79
2022-01-27T04:27:00,brk,13.80
2022-01-27T04:28:00,brk,14.30
2022-01-27T04:29:00,brk,13.92
2022-01-27T04:30:00,brk,13.90
2022-01-27T04:31:00,brk,13.01
2022-01-27T04:32:00,brk,12.88
2022-01-27T04:33:00,brk,13.74
2022-01-27T04:34:00,brk,13.73
2022-01-27T04:35:00,brk,13.79
2022-01-27T04:36:00,brk,13.83
2022-01-27T04:37:00,brk,12.99
2022-01-27T04:38:00,brk,13.08
2022-01-27T04:39:00,brk,12.98
2022-01-27T04:40:00,brk,13.73
2022-01-27T04:41:00,brk,13.98
2022-01-27T04:42:00,brk,14.05
2022-01-27T04:43:00,brk,14.04
2022-01-27T04:44:00,brk,13.17
2022-01-27T04:45:00,brk,13.06
2022-01-27T04:46:00,brk,13.89
2022-01-27T04:47:00,brk,14.00
2022-01-27T04:48:00,brk,13.99
2022-01-27T04:49:00,brk,13.96
2022-01-27T04:50:00,brk,13.93
2022-01-27T04:51:00,brk,12.89
2022-01-27T04:52:00,brk,12.86
2022-01-27T04:53:00,brk,13.77
2022-01-27T04:54:00,brk,13.86
2022-01-27T04:55:00,brk,13.92
2022-01-27T04:56:00,brk,13.85
2022-01-27T04:57:00,brk,13.01
2022-01-27T04:58:00,brk,12.97
2022-01-27T04:59:00,brk,13.80
2022-01-27T05:00:00,brk,13.83
2022-01-27T05:01:00,brk,13.71
2022-01-27T05:02:00,brk,13.66
2022-01-27T05:03:00,brk,12.77
2022-01-27T05:04:00,brk,12.75
2022-01-27T05:05:00,brk,13.57
2022-01-27T05:06:00,brk,13.62
2022-01-27T05:07:00,brk,13.74
2022-01-27T05:08:00,brk,13.71
2022-01-27T05:09:00,brk,13.72
2022-01-27T05:10:00,brk,12.71
2022-01-27T05:11:00,brk,12.74
2022-01-27T05:12:00,brk,12.67
2022-01-27T05:13:00,brk,13.62
2022-01-27T05:14:00,brk,13.68
2022-01-27T05:15:00,brk,13.79
2022-01-27T05:16:00,brk,13.72
2022-01-27T05:17:00,brk,12.77
2022-01-27T05:18:00,brk,12.69
2022-01-27T05:19:00,brk,13.56
2022-01-27T05:20:00,brk,13.71
2022-01-27T05:21:00,brk,13.73
2022-01-27T05:22:00,brk,13.69
2022-01-27T05:23:00,brk,12.85
2022-01-27T05:24:00,brk,12.88
2022-01-27T05:25:00,brk,13.85
2022-01-27T05:26:00,brk,13.97
2022-01-27T05:27:00,brk,13.85
2022-01-27T05:28:00,brk,14.52
2022-01-27T05:29:00,brk,13.20
2022-01-27T05:30:00,brk,13.29
2022-01-27T05:31:00,brk,13.37
2022-01-27T05:32:00,brk,14.19
2022-01-27T05:33:00,brk,14.30
2022-01-27T05:34:00,brk,14.37
2022-01-27T05:35:00,brk,14.34
2022-01-27T05:36:00,brk,13.28
2022-01-27T05:37:00,brk,13.30
2022-01-27T05:38:00,brk,14.19
2022-01-27T05:39:00,brk,14.47
2022-01-27T05:40:00,brk,14.41
2022-01-27T05:41:00,brk,14.21
2022-01-27T05:42:00,brk,13.18
2022-01-27T05:43:00,brk,21.74
2022-01-27T05:44:00,brk,22.37
2022-01-27T05:45:00,brk,22.38
2022-01-27T05:46:00,brk,14.00
2022-01-27T05:47:00,brk,13.98
2022-01-27T05:48:00,brk,13.51
2022-01-27T05:49:00,brk,13.40
2022-01-27T05:50:00,brk,13.28
2022-01-27T05:51:00,brk,14.16
2022-01-27T05:52:00,brk,14.22
2022-01-27T05:53:00,brk,14.30
2022-01-27T05:54:00,brk,14.13
2022-01-27T05:55:00,brk,13.19
2022-01-27T05:56:00,brk,24.00
2022-01-27T05:57:00,brk,13.10
2022-01-27T05:58:00,brk,13.93
2022-01-27T05:59:00,brk,14.13
2022-01-27T06:00:00,brk,14.10
2022-01-27T06:01:00,brk,13.24
2022-01-27T06:02:00,brk,13.17
2022-01-27T06:03:00,brk,13.09
2022-01-27T06:04:00,brk,13.91
2022-01-27T06:05:00,brk,13.86
2022-01-27T06:06:00,brk,13.96
2022-01-27T06:07:00,brk,14.00
2022-01-27T06:08:00,brk,13.16
2022-01-27T06:09:00,brk,13.26
2022-01-27T06:10:00,brk,14.04
2022-01-27T06:11:00,brk,14.28
2022-01-27T06:12:00,brk,14.17
2022-01-27T06:13:00,brk,14.26
2022-01-27T06:14:00,brk,13.21
2022-01-27T06:15:00,brk,18.21
2022-01-27T06:16:00,brk,14.20
2022-01-27T06:17:00,brk,14.27
2022-01-27T06:18:00,brk,14.30
2022-01-27T06:19:00,brk,14.36
2022-01-27T06:20:00,brk,14.31
2022-01-27T06:21:00,brk,13.38
2022-01-27T06:22:00,brk,13.30
2022-01-27T06:23:00,brk,14.35
2022-01-27T06:24:00,brk,14.72
2022-01-27T06:25:00,brk,14.65
2022-01-27T06:26:00,brk,14.50
2022-01-27T06:27:00,brk,13.56
2022-01-27T06:28:00,brk,13.64
2022-01-27T06:29:00,brk,13.54
2022-01-27T06:30:00,brk,14.40
2022-01-27T06:31:00,brk,14.41
2022-01-27T06:32:00,brk,14.61
2022-01-27T06:33:00,brk,14.60
2022-01-27T06:34:00,brk,14.62
2022-01-27T06:35:00,brk,13.61
2022-01-27T06:36:00,brk,13.56
2022-01-27T06:37:00,brk,14.47
2022-01-27T06:38:00,brk,14.48
2022-01-27T06:39:00,brk,14.68
2022-01-27T06:40:00,brk,14.69
2022-01-27T06:41:00,brk,14.56
2022-01-27T06:42:00,brk,14.51
2022-01-27T06:43:00,brk,13.60
2022-01-27T06:44:00,brk,13.40
2022-01-27T06:45:00,brk,14.14
2022-01-27T06:46:00,brk,14.18
2022-01-27T06:47:00,brk,22.69
2022-01-27T06:48:00,brk,22.51
2022-01-27T06:49:00,brk,13.97
2022-01-27T06:50:00,brk,13.10
2022-01-27T06:51:00,brk,13.04
2022-01-27T06:52:00,brk,13.93
2022-01-27T06:53:00,brk,14.02
2022-01-27T06:54:00,brk,14.11
2022-01-27T06:55:00,brk,14.45
2022-01-27T06:56:00,brk,14.46
2022-01-27T06:57:00,brk,13.56
2022-01-27T06:58:00,brk,13.48
2022-01-27T06:59:00,brk,13.49
2022-01-27T07:00:00,brk,14.31
2022-01-27T07:01:00,brk,14.33
2022-01-27T07:02:00,brk,14.34
2022-01-27T07:03:00,brk,14.25
2022-01-27T07:04:00,brk,13.30
2022-01-27T07:05:00,brk,13.93
2022-01-27T07:06:00,brk,13.29
2022-01-27T07:07:00,brk,14.12
2022-01-27T07:08:00,brk,13.63
2022-01-27T07:09:00,brk,13.67
2022-01-27T07:10:00,brk,13.75
2022-01-27T07:11:00,brk,12.97
2022-01-27T07:12:00,brk,13.21
2022-01-27T07:13:00,brk,13.07
2022-01-27T07:14:00,brk,13.84
2022-01-27T07:15:00,brk,13.96
2022-01-27T07:16:00,brk,13.83
2022-01-27T07:17:00,brk,13.63
2022-01-27T07:18:00,brk,12.68
2022-01-27T07:19:00,brk,12.64
2022-01-27T07:20:00,brk,12.61
2022-01-27T07:21:00,brk,26.40
2022-01-27T07:22:00,brk,13.64
2022-01-27T07:23:00,brk,13.66
2022-01-27T07:24:00,brk,13.52
2022-01-27T07:25:00,brk,12.56
2022-01-27T07:26:00,brk,12.64
2022-01-27T07:27:00,brk,12.64
2022-01-27T07:28:00,brk,13.46
2022-01-27T07:29:00,brk,13.65
2022-01-27T07:30:00,brk,13.69
2022-01-27T07:31:00,brk,13.66
2022-01-27T07:32:00,brk,13.69
2022-01-27T07:33:00,brk,12.73
2022-01-27T07:34:00,brk,12.66
2022-01-27T07:35:00,brk,22.00
2022-01-27T07:36:00,brk,21.99
2022-01-27T07:37:00,brk,13.97
2022-01-27T07:38:00,brk,13.89
2022-01-27T07:39:00,brk,13.93
2022-01-27T07:40:00,brk,12.96
2022-01-27T07:41:00,brk,12.73
2022-01-27T07:42:00,brk,13.74
2022-01-27T07:43:00,brk,13.92
2022-01-27T07:44:00,brk,13.96
2022-01-27T07:45:00,brk,13.97
2022-01-27T07:46:00,brk,14.03
2022-01-27T07:47:00,brk,13.07
2022-01-27T07:48:00,brk,12.98
2022-01-27T07:49:00,brk,13.83
2022-01-27T07:50:00,brk,13.92
2022-01-27T07:51:00,brk,13.76
2022-01-27T07:52:00,brk,13.74
2022-01-27T07:53:00,brk,12.95
2022-01-27T07:54:00,brk,12.79
2022-01-27T07:55:00,brk,12.82
2022-01-27T07:56:00,brk,13.68
2022-01-27T07:57:00,brk,13.94
2022-01-27T07:58:00,brk,24.32
2022-01-27T07:59:00,brk,13.81
2022-01-27T08:00:00,brk,12.80
2022-01-27T08:01:00,brk,12.67
2022-01-27T08:02:00,brk,13.89
2022-01-27T08:03:00,brk,13.48
2022-01-27T08:04:00,brk,13.58
2022-01-27T08:05:00,brk,13.66
2022-01-27T08:06:00,brk,13.43
2022-01-27T08:07:00,brk,12.59
2022-01-27T08:08:00,brk,12.47
2022-01-27T08:09:00,brk,13.24
2022-01-27T08:10:00,brk,13.22
2022-01-27T08:11:00,brk,13.28
2022-01-27T08:12:00,brk,13.31
2022-01-27T08:13:00,brk,12.37
2022-01-27T08:14:00,brk,12.47
2022-01-27T08:15:00,brk,13.34
2022-01-27T08:16:00,brk,13.63
2022-01-27T08:17:00,brk,13.55
2022-01-27T08:18:00,brk,13.60
2022-01-27T08:19:00,brk,12.81
2022-01-27T08:20:00,brk,12.80
2022-01-27T08:21:00,brk,13.58
2022-01-27T08:22:00,brk,13.59
2022-01-27T08:23:00,brk,13.72
2022-01-27T08:24:00,brk,13.58
2022-01-27T08:25:00,brk,12.49
2022-01-27T08:26:00,brk,20.79
2022-01-27T08:27:00,brk,20.72
2022-01-27T08:28:00,brk,13.33
2022-01-27T08:29:00,brk,13.30
2022-01-27T08:30:00,brk,13.31
2022-01-27T08:31:00,brk,12.54
2022-01-27T08:32:00,brk,12.34
2022-01-27T08:33:00,brk,12.21
2022-01-27T08:34:00,brk,13.01
2022-01-27T08:35:00,brk,13.09
2022-01-27T08:36:00,brk,13.09
2022-01-27T08:37:00,brk,13.28
2022-01-27T08:38:00,brk,12.37
2022-01-27T08:39:00,brk,12.66
2022-01-27T08:40:00,brk,13.51
2022-01-27T08:41:00,brk,13.64
2022-01-27T08:42:00,brk,13.71
2022-01-27T08:43:00,brk,13.78
2022-01-27T08:44:00,brk,12.89
2022-01-27T08:45:00,brk,12.80
2022-01-27T08:46:00,brk,12.82
2022-01-27T08:47:00,brk,13.84
2022-01-27T08:48:00,brk,13.94
2022-01-27T08:49:00,brk,13.94
2022-01-27T08:50:00,brk,13.76
2022-01-27T08:51:00,brk,12.89
2022-01-27T08:52:00,brk,12.92
2022-01-27T08:53:00,brk,13.71
2022-01-27T08:54:00,brk,22.16
2022-01-27T08:55:00,brk,13.76
2022-01-27T08:56:00,brk,13.67
2022-01-27T08:57:00,brk,12.65
2022-01-27T08:58:00,brk,12.50
2022-01-27T08:59:00,brk,12.51
2022-01-27T09:00:00,brk,12.48
2022-01-27T09:01:00,brk,13.79
2022-01-27T09:02:00,brk,13.49
2022-01-27T09:03:00,brk,13.28
2022-01-27T09:04:00,brk,12.21
2022-01-27T09:05:00,brk,12.22
2022-01-27T09:06:00,brk,12.19
2022-01-27T09:07:00,brk,12.04
2022-01-27T09:08:00,brk,12.94
2022-01-27T09:09:00,brk,13.06
2022-01-27T09:10:00,brk,13.06
2022-01-27T09:11:00,brk,12.19
2022-01-27T09:12:00,brk,12.20
2022-01-27T09:13:00,brk,12.23
2022-01-27T09:14:00,brk,12.07
2022-01-27T09:15:00,brk,13.17
2022-01-27T09:16:00,brk,13.26
2022-01-27T09:17:00,brk,13.67
2022-01-27T09:18:00,brk,13.58
2022-01-27T09:19:00,brk,12.32
2022-01-27T09:20:00,brk,12.39
2022-01-27T09:21:00,brk,12.37
2022-01-27T09:22:00,brk,13.21
2022-01-27T09:23:00,brk,13.26
2022-01-27T09:24:00,brk,13.32
2022-01-27T09:25:00,brk,13.33
2022-01-27T09:26:00,brk,12.39
2022-01-27T09:27:00,brk,12.13
2022-01-27T09:28:00,brk,12.29
2022-01-27T09:29:00,brk,12.11
2022-01-27T09:30:00,brk,12.86
2022-01-27T09:31:00,brk,12.94
2022-01-27T09:32:00,brk,13.02
2022-01-27T09:33:00,brk,12.07
2022-01-27T09:34:00,brk,12.10
2022-01-27T09:35:00,brk,12.07
2022-01-27T09:36:00,brk,12.87
2022-01-27T09:37:00,brk,14.33
2022-01-27T09:38:00,brk,14.22
2022-01-27T09:39:00,brk,13.44
2022-01-27T09:40:00,brk,13.44
2022-01-27T09:41:00,brk,13.50
2022-01-27T09:42:00,brk,13.12
2022-01-27T09:43:00,brk,13.12
2022-01-27T09:44:00,brk,13.20
2022-01-27T09:45:00,brk,13.10
2022-01-27T09:46:00,brk,12.39
2022-01-27T09:47:00,brk,12.04
2022-01-27T09:48:00,brk,12.18
2022-01-27T09:49:00,brk,13.10
2022-01-27T09:50:00,brk,13.07
2022-01-27T09:51:00,brk,13.12
2022-01-27T09:52:00,brk,13.19
2022-01-27T09:53:00,brk,12.23
2022-01-27T09:54:00,brk,12.30
2022-01-27T09:55:00,brk,13.05
2022-01-27T09:56:00,brk,13.14
2022-01-27T09:57:00,brk,13.23
2022-01-27T09:58:00,brk,13.19
2022-01-27T09:59:00,brk,12.07
2022-01-27T10:00:00,brk,11.96
2022-01-27T10:01:00,brk,11.87
2022-01-27T10:02:00,brk,11.79
2022-01-27T10:03:00,brk,12.86
2022-01-27T10:04:00,brk,12.96
2022-01-27T10:05:00,brk,12.89
2022-01-27T10:06:00,brk,12.04
2022-01-27T10:07:00,brk,12.12
2022-01-27T10:08:00,brk,12.10
2022-01-27T10:09:00,brk,12.05
2022-01-27T10:10:00,brk,12.82
2022-01-27T10:11:00,brk,12.83
2022-01-27T10:12:00,brk,12.88
2022-01-27T10:13:00,brk,12.95
2022-01-27T10:14:00,brk,12.02
2022-01-27T10:15:00,brk,12.04
2022-01-27T10:16:00,brk,12.03
2022-01-27T10:17:00,brk,12.00
2022-01-27T10:18:00,brk,12.77
2022-01-27T10:19:00,brk,12.96
2022-01-27T10:20:00,brk,12.93
2022-01-27T10:21:00,brk,13.02
2022-01-27T10:22:00,brk,12.03
2022-01-27T10:23:00,brk,12.01
2022-01-27T10:24:00,brk,11.91
2022-01-27T10:25:00,brk,12.05
2022-01-27T10:26:00,brk,13.02
2022-01-27T10:27:00,brk,12.92
2022-01-27T10:28:00,brk,12.88
2022-01-27T10:29:00,brk,12.94
2022-01-27T10:30:00,brk,12.04
2022-01-27T10:31:00,brk,11.96
2022-01-27T10:32:00,brk,11.98
2022-01-27T10:33:00,brk,11.92
2022-01-27T10:34:00,brk,12.74
2022-01-27T10:35:00,brk,12.84
2022-01-27T10:36:00,brk,12.93
2022-01-27T10:37:00,brk,12.87
2022-01-27T10:38:00,brk,11.88
2022-01-27T10:39:00,brk,12.12
2022-01-27T10:40:00,brk,13.78
2022-01-27T10:41:00,brk,14.70
2022-01-27T10:42:00,brk,14.70
2022-01-27T10:43:00,brk,14.61
2022-01-27T10:44:00,brk,13.92
2022-01-27T10:45:00,brk,12.23
2022-01-27T10:46:00,brk,12.24
2022-01-27T10:47:00,brk,12.19
2022-01-27T10:48:00,brk,13.11
2022-01-27T10:49:00,brk,13.27
2022-01-27T10:50:00,brk,13.26
2022-01-27T10:51:00,brk,12.28
2022-01-27T10:52:00,brk,12.25
2022-01-27T10:53:00,brk,12.24
2022-01-27T10:54:00,brk,13.60
2022-01-27T10:55:00,brk,13.10
2022-01-27T10:56:00,brk,13.19
2022-01-27T10:57:00,brk,13.19
2022-01-27T10:58:00,brk,12.14
2022-01-27T10:59:00,brk,12.17
2022-01-27T11:00:00,brk,20.83
2022-01-27T11:01:00,brk,21.54
2022-01-27T11:02:00,brk,21.55
2022-01-27T11:03:00,brk,13.21
2022-01-27T11:04:00,brk,12.19
2022-01-27T11:05:00,brk,12.27
2022-01-27T11:06:00,brk,12.13
2022-01-27T11:07:00,brk,12.11
2022-01-27T11:08:00,brk,11.96
2022-01-27T11:09:00,brk,12.01
2022-01-27T11:10:00,brk,12.88
2022-01-27T11:11:00,brk,12.92
2022-01-27T11:12:00,brk,12.80
2022-01-27T11:13:00,brk,12.74
2022-01-27T11:14:00,brk,11.92
2022-01-27T11:15:00,brk,11.90
2022-01-27T11:16:00,brk,11.71
2022-01-27T11:17:00,brk,11.79
2022-01-27T11:18:00,brk,11.84
2022-01-27T11:19:00,brk,12.73
2022-01-27T11:20:00,brk,12.80
2022-01-27T11:21:00,brk,12.73
2022-01-27T11:22:00,brk,12.82
2022-01-27T11:23:00,brk,12.13
2022-01-27T11:24:00,brk,11.94
2022-01-27T11:25:00,brk,11.86
2022-01-27T11:26:00,brk,11.91
2022-01-27T11:27:00,brk,11.98
2022-01-27T11:28:00,brk,11.86
2022-01-27T11:29:00,brk,12.71
2022-01-27T11:30:00,brk,12.87
2022-01-27T11:31:00,brk,12.88
2022-01-27T11:32:00,brk,12.82
2022-01-27T11:33:00,brk,11.96
2022-01-27T11:34:00,brk,11.93
2022-01-27T11:35:00,brk,11.95
2022-01-27T11:36:00,brk,11.90
2022-01-27T11:37:00,brk,11.94
2022-01-27T11:38:00,brk,12.78
2022-01-27T11:39:00,brk,12.93
2022-01-27T11:40:00,brk,13.01
2022-01-27T11:41:00,brk,13.07
2022-01-27T11:42:00,brk,13.12
2022-01-27T11:43:00,brk,12.22
2022-01-27T11:44:00,brk,12.10
2022-01-27T11:45:00,brk,12.13
2022-01-27T11:46:00,brk,13.44
2022-01-27T11:47:00,brk,13.56
2022-01-27T11:48:00,brk,13.52
2022-01-27T11:49:00,brk,12.50
2022-01-27T11:50:00,brk,14.23
2022-01-27T11:51:00,brk,13.96
2022-01-27T11:52:00,brk,14.74
2022-01-27T11:53:00,brk,14.95
2022-01-27T11:54:00,brk,15.06
2022-01-27T11:55:00,brk,15.06
2022-01-27T11:56:00,brk,14.02
2022-01-27T11:57:00,brk,13.76
2022-01-27T11:58:00,brk,13.78
2022-01-27T11:59:00,brk,14.58
2022-01-27T12:00:00,brk,14.60
2022-01-27T12:01:00,brk,14.71
2022-01-27T12:02:00,brk,13.09
2022-01-27T12:03:00,brk,13.68
2022-01-27T12:04:00,brk,13.74
2022-01-27T12:05:00,brk,13.72
2022-01-27T12:06:00,brk,14.51
2022-01-27T12:07:00,brk,14.61
2022-01-27T12:08:00,brk,14.73
2022-01-27T12:09:00,brk,13.87
2022-01-27T12:10:00,brk,13.85
2022-01-27T12:11:00,brk,15.16
2022-01-27T12:12:00,brk,13.03
2022-01-27T12:13:00,brk,14.66
2022-01-27T12:14:00,brk,13.42
2022-01-27T12:15:00,brk,12.94
2022-01-27T12:16:00,brk,12.29
2022-01-27T12:17:00,brk,20.79
2022-01-27T12:18:00,brk,20.75
2022-01-27T12:19:00,brk,12.47
2022-01-27T12:20:00,brk,12.29
2022-01-27T12:21:00,brk,12.61
2022-01-27T12:22:00,brk,12.78
2022-01-27T12:23:00,brk,13.59
2022-01-27T12:24:00,brk,13.58
2022-01-27T12:25:00,brk,13.74
2022-01-27T12:26:00,brk,13.74
2022-01-27T12:27:00,brk,12.72
2022-01-27T12:28:00,brk,12.64
2022-01-27T12:29:00,brk,12.63
2022-01-27T12:30:00,brk,12.45
2022-01-27T12:31:00,brk,12.28
2022-01-27T12:32:00,brk,13.09
2022-01-27T12:33:00,brk,13.02
2022-01-27T12:34:00,brk,12.92
2022-01-27T12:35:00,brk,12.80
2022-01-27T12:36:00,brk,12.88
2022-01-27T12:37:00,brk,11.96
2022-01-27T12:38:00,brk,12.04
2022-01-27T12:39:00,brk,11.74
2022-01-27T12:40:00,brk,11.83
2022-01-27T12:41:00,brk,11.93
2022-01-27T12:42:00,brk,13.11
2022-01-27T12:43:00,brk,13.11
2022-01-27T12:44:00,brk,13.11
2022-01-27T12:45:00,brk,13.14
2022-01-27T12:46:00,brk,12.28
2022-01-27T12:47:00,brk,12.08
2022-01-27T12:48:00,brk,12.00
2022-01-27T12:49:00,brk,12.24
2022-01-27T12:50:00,brk,12.26
2022-01-27T12:51:00,brk,13.26
2022-01-27T12:52:00,brk,13.64
2022-01-27T12:53:00,brk,13.76
2022-01-27T12:54:00,brk,13.76
2022-01-27T12:55:00,brk,13.71
2022-01-27T12:56:00,brk,12.91
2022-01-27T12:57:00,brk,13.01
2022-01-27T12:58:00,brk,12.76
2022-01-27T12:59:00,brk,13.53
2022-01-27T13:00:00,brk,13.90
2022-01-27T13:01:00,brk,13.77
2022-01-27T13:02:00,brk,13.66
2022-01-27T13:03:00,brk,14.58
2022-01-27T13:04:00,brk,14.67
2022-01-27T13:05:00,brk,14.46
2022-01-27T13:06:00,brk,14.37
2022-01-27T13:07:00,brk,15.23
2022-01-27T13:08:00,brk,15.31
2022-01-27T13:09:00,brk,15.15
2022-01-27T13:10:00,brk,14.16
2022-01-27T13:11:00,brk,14.23
2022-01-27T13:12:00,brk,12.76
2022-01-27T13:13:00,brk,13.62
2022-01-27T13:14:00,brk,13.78
2022-01-27T13:15:00,brk,14.04
2022-01-27T13:16:00,brk,13.73
2022-01-27T13:17:00,brk,12.83
2022-01-27T13:18:00,brk,12.89